Temp
66 64 55 57 58 58 58 56 56 60 55 53 47 44 45 50 51 50 52 53 54 55 59 61 61 62 62 62 61 61 61 62 62 61 60 60 59 61 62 65 66 66 66 65
67 55 58 58 58 57 58 56 57 57 54 55 46 41 45 48 49 51 51 52 53 55 56 58 60 60 60 60 61 60 59 59 60 60 60 60 59 60 60 60 62 64 64 65
60 55 58 57 56 55 55 53 51 49 53 50 46 40 42 47 51 53 53 54 55 53 53 55 57 58 59 59 58 59 58 59 59 59 59 58 59 58 57 58 60 61 62 62
56 59 56 58 53 53 51 57 52 48 47 47 49 43 40 42 46 48 51 52 52 53 54 55 55 56 57 57 58 58 58 58 58 58 57 55 54 53 55 56 58 59 60 60
51 53 53 53 49 53 51 54 49 47 48 46 44 42 39 42 40 44 48 50 51 53 53 53 55 55 57 57 56 57 56 56 57 56 56 55 53 55 55 56 55 56 57 58
54 58 54 52 54 52 56 56 49 47 49 44 41 41 37 36 39 44 48 49 50 52 53 54 55 56 55 56 56 56 55 55 56 56 55 53 52 52 52 53 53 55 56 57
54 50 53 53 53 55 53 52 46 45 44 39 44 40 35 40 45 46 46 48 50 52 52 52 52 52 53 54 54 55 54 53 54 53 53 53 52 51 50 51 53 52 53 54
48 49 48 53 46 44 45 47 40 28 35 37 44 37 37 44 50 49 49 49 50 50 51 51 52 53 52 53 54 53 52 50 52 52 51 51 51 51 51 51 51 51 52 55
47 44 49 49 51 49 46 41 43 37 39 34 40 40 40 47 46 46 46 47 47 48 50 50 51 52 53 53 52 51 50 48 47 47 46 46 47 46 46 48 51 52 52 53
45 44 46 46 50 49 46 47 38 41 25 25 38 37 33 38 39 42 43 44 46 48 49 51 51 52 53 52 52 51 46 44 43 43 42 43 42 43 43 43 43 46 49 50
47 45 43 47 40 39 43 40 40 38 36 27 26 34 42 41 41 41 43 45 46 47 49 50 51 52 51 51 49 47 44 41 40 40 40 40 40 42 42 41 42 42 44 45
45 45 40 36 42 46 44 37 37 32 28 32 27 29 48 46 44 44 43 45 47 48 49 50 50 50 49 48 46 44 41 40 39 40 39 39 40 40 40 41 42 43 42 43
46 44 41 35 38 42 37 36 35 33 31 25 21 31 48 46 44 44 43 45 47 47 48 49 49 47 47 46 44 42 40 39 39 39 39 40 40 40 40 41 41 43 44 44
47 43 41 38 36 37 32 32 33 33 29 26 29 32 38 40 39 41 43 46 46 47 47 47 46 44 43 45 43 40 38 39 39 40 40 41 43 44 44 44 44 43 44 43
46 40 39 36 35 36 35 32 32 26 33 24 31 30 37 38 39 42 44 44 45 44 45 45 43 41 43 41 39 38 38 38 39 40 41 43 44 44 43 43 44 45 44 44
43 38 38 33 34 35 32 33 33 33 34 33 33 34 42 42 44 42 42 43 44 43 44 44 42 41 40 38 37 37 37 38 40 41 41 43 43 43 44 45 45 47 45 44
40 40 36 34 32 33 31 34 34 35 37 34 29 34 39 38 39 40 42 44 42 43 44 41 40 39 38 37 37 36 37 39 41 42 42 42 42 41 42 44 45 44 44 45
39 35 33 35 32 27 34 39 37 34 36 37 36 37 38 39 41 44 48 43 42 43 43 40 40 39 38 38 38 38 39 40 43 42 41 42 42 41 41 41 42 43 44 43
42 38 28 32 34 33 32 35 34 31 32 37 35 38 39 41 42 46 47 45 44 44 43 41 42 41 40 38 38 38 39 41 43 41 41 42 43 41 40 39 39 40 40 42
38 38 35 30 28 28 35 38 38 37 30 39 38 38 38 39 33 39 45 46 45 46 43 41 43 43 40 38 38 38 39 40 42 42 43 44 44 42 41 41 40 41 41 40
34 31 31 33 29 35 39 39 38 28 31 40 40 39 38 36 39 42 45 45 46 45 43 43 43 42 40 39 38 37 39 40 44 44 44 44 44 43 43 42 42 42 40 40
35 32 32 27 26 28 41 38 31 38 42 41 41 41 39 40 42 43 44 44 44 43 41 41 40 42 41 39 37 37 38 42 46 46 45 46 46 46 47 45 44 44 42 39
35 38 36 35 39 41 42 41 43 42 40 40 40 42 41 40 41 42 42 43 44 42 40 41 40 40 40 39 38 37 40 45 46 46 46 46 47 48 49 47 47 46 46 44
36 37 37 33 39 38 40 42 42 43 41 42 43 42 42 40 42 42 42 43 43 41 39 40 39 38 36 38 38 39 42 46 47 46 46 46 44 44 46 47 47 45 45 45
41 37 37 38 39 39 39 41 41 41 42 43 44 43 42 42 41 42 41 42 42 41 39 40 39 37 36 37 38 40 42 47 47 46 44 45 45 44 43 44 44 45 46 45
39 41 39 42 43 42 41 42 41 40 41 42 41 42 43 43 41 42 42 43 42 41 40 38 39 38 36 37 38 40 42 48 46 45 43 42 45 45 45 44 43 45 45 45
MSLP
1018.14 1018.31 1019.90 1020.84 1021.07 1020.81 1020.22 1019.83 1019.78 1020.70 1022.99 1023.73 1025.64 1027.28 1028.65 1029.32 1029.35 1029.03 1028.51 1027.97 1027.52 1027.00 1026.50 1025.91 1025.33 1024.62 1023.90 1023.32 1022.53 1021.90 1021.20 1020.54 1019.95 1019.05 1018.22 1017.44 1016.81 1016.22 1015.49 1014.57 1014.09 1013.86 1013.63 1013.50
1018.88 1020.41 1022.03 1022.26 1022.11 1021.46 1020.77 1020.72 1020.70 1021.73 1023.18 1023.96 1025.91 1027.60 1028.91 1029.21 1029.29 1029.22 1028.71 1028.20 1027.57 1026.85 1026.09 1025.35 1024.74 1024.17 1023.61 1022.83 1022.17 1021.56 1020.84 1020.11 1019.47 1018.77 1017.95 1017.33 1016.53 1015.79 1015.26 1014.75 1014.02 1013.39 1012.94 1012.56
1020.27 1022.69 1022.99 1022.86 1022.61 1021.99 1021.93 1022.05 1022.22 1022.68 1023.08 1024.68 1025.63 1027.15 1028.26 1029.02 1029.05 1028.95 1028.62 1028.30 1027.63 1026.87 1026.02 1025.08 1024.36 1023.82 1023.15 1022.40 1021.68 1021.10 1020.29 1019.51 1018.81 1018.28 1017.51 1016.71 1015.98 1015.19 1014.45 1013.78 1013.09 1012.64 1012.35 1012.03
1022.59 1023.60 1023.67 1023.33 1023.55 1023.87 1022.69 1022.96 1022.95 1022.84 1023.08 1023.38 1025.28 1025.33 1027.52 1028.76 1028.95 1028.97 1028.66 1028.03 1027.49 1026.98 1026.09 1025.34 1024.38 1023.56 1022.95 1022.18 1021.47 1020.65 1019.71 1018.85 1018.20 1017.63 1016.78 1016.05 1015.21 1014.29 1013.82 1013.21 1012.65 1012.21 1011.95 1011.53
1024.34 1024.50 1024.38 1024.31 1025.36 1025.12 1024.34 1023.51 1023.41 1023.22 1023.04 1023.69 1024.87 1025.67 1027.03 1028.83 1029.07 1028.85 1028.65 1028.15 1027.52 1026.94 1026.18 1025.06 1024.26 1023.41 1022.53 1021.70 1020.87 1020.01 1019.02 1018.08 1017.35 1016.64 1015.99 1015.11 1014.23 1013.48 1012.81 1012.42 1011.90 1011.49 1011.04 1010.73
1025.01 1025.80 1026.10 1026.41 1026.30 1026.26 1025.17 1023.04 1023.18 1023.40 1022.97 1022.72 1025.14 1026.30 1027.39 1029.07 1029.71 1029.12 1028.78 1028.27 1027.71 1026.86 1025.83 1024.81 1024.07 1023.25 1022.08 1020.94 1020.00 1019.00 1018.01 1016.94 1016.29 1015.55 1014.70 1013.94 1013.20 1012.48 1011.75 1011.16 1010.64 1010.23 1009.94 1009.60
1025.55 1026.56 1027.20 1027.58 1026.50 1026.34 1025.89 1023.65 1022.63 1022.44 1022.26 1023.65 1025.24 1025.98 1028.47 1030.01 1029.78 1029.75 1029.40 1028.64 1027.88 1027.13 1025.69 1024.48 1023.34 1022.36 1021.21 1020.09 1019.08 1018.12 1017.26 1016.16 1015.45 1014.71 1013.84 1012.99 1012.12 1011.42 1010.63 1010.03 1009.42 1008.85 1008.44 1008.24
1026.84 1027.16 1028.43 1029.02 1029.11 1028.61 1028.01 1027.28 1027.05 1026.63 1024.83 1025.00 1025.57 1026.50 1028.91 1030.03 1029.63 1029.47 1029.51 1028.90 1027.92 1026.83 1025.67 1024.36 1023.10 1021.91 1020.76 1019.67 1018.58 1017.67 1016.64 1015.73 1014.79 1013.74 1012.86 1012.01 1011.31 1010.43 1009.63 1008.89 1008.28 1007.73 1007.33 1006.94
1028.54 1029.01 1030.05 1030.35 1030.29 1029.75 1029.16 1029.24 1030.25 1029.02 1028.13 1027.20 1026.60 1027.99 1029.82 1029.57 1029.47 1029.08 1028.85 1028.19 1027.32 1026.51 1025.36 1024.01 1022.81 1021.72 1020.31 1019.26 1018.30 1017.47 1016.45 1015.39 1014.42 1013.43 1012.41 1011.48 1010.56 1009.75 1008.88 1008.13 1007.43 1006.70 1006.34 1005.95
1030.23 1029.77 1030.56 1031.00 1031.08 1031.36 1031.18 1031.75 1030.99 1030.62 1030.04 1028.46 1027.15 1027.71 1029.46 1029.86 1029.75 1029.30 1028.57 1028.10 1027.30 1026.27 1024.95 1023.57 1022.46 1021.20 1020.15 1019.13 1017.95 1017.03 1016.26 1015.12 1013.93 1012.77 1011.76 1010.62 1009.62 1008.73 1007.95 1007.26 1006.57 1006.02 1005.47 1005.13
1030.97 1030.74 1031.22 1031.36 1032.57 1032.78 1032.27 1032.51 1032.71 1032.91 1032.70 1031.99 1030.53 1029.37 1031.18 1031.16 1030.90 1030.46 1029.47 1028.41 1027.27 1025.98 1024.69 1023.40 1022.15 1021.00 1020.03 1018.95 1017.80 1016.76 1015.70 1014.40 1013.18 1011.99 1010.75 1009.63 1008.50 1007.54 1006.70 1006.00 1005.42 1004.98 1004.64 1004.39
1031.99 1031.42 1031.52 1033.16 1034.23 1034.35 1034.23 1034.69 1034.81 1034.22 1034.27 1034.32 1034.05 1031.73 1031.46 1032.04 1031.69 1031.19 1030.02 1028.85 1027.52 1026.19 1024.91 1023.50 1022.29 1020.97 1019.88 1018.64 1017.66 1016.59 1015.36 1014.03 1012.68 1011.30 1009.88 1008.55 1007.40 1006.40 1005.50 1004.69 1004.08 1003.59 1003.29 1003.20
1032.38 1031.90 1032.05 1033.41 1034.59 1034.85 1035.21 1036.17 1036.36 1036.34 1036.63 1035.87 1035.00 1031.66 1031.97 1032.55 1031.86 1031.43 1030.25 1028.86 1027.54 1026.17 1024.66 1023.40 1022.23 1021.14 1020.05 1018.63 1017.63 1016.47 1015.14 1013.75 1012.24 1010.68 1009.19 1007.75 1006.45 1005.35 1004.34 1003.51 1002.88 1002.32 1001.89 1001.82
1033.12 1032.70 1032.75 1033.65 1034.55 1035.48 1035.99 1036.86 1037.19 1037.10 1036.67 1036.68 1035.04 1033.10 1032.78 1032.54 1031.87 1031.30 1030.06 1029.03 1027.95 1026.27 1024.96 1023.72 1022.43 1021.55 1020.27 1018.90 1017.81 1016.54 1015.00 1013.57 1011.94 1010.33 1008.78 1007.17 1005.68 1004.60 1003.40 1002.37 1001.39 1000.61 1000.50 1000.62
1033.57 1033.36 1033.96 1034.94 1035.53 1036.03 1036.53 1036.92 1037.36 1037.66 1037.35 1037.07 1035.79 1035.05 1034.12 1033.80 1032.88 1031.69 1030.52 1029.11 1027.40 1026.09 1024.74 1023.95 1023.10 1021.92 1020.52 1019.27 1018.12 1016.74 1015.10 1013.44 1011.81 1010.12 1008.46 1007.07 1005.97 1004.81 1003.57 1001.82 1000.18 998.56 998.65 999.59
1034.41 1034.38 1034.81 1035.50 1036.21 1036.46 1036.61 1037.21 1037.50 1037.52 1037.24 1036.96 1036.80 1035.37 1035.21 1034.39 1033.40 1031.71 1030.77 1029.07 1027.81 1026.70 1025.24 1024.34 1023.58 1022.46 1021.07 1019.80 1018.45 1016.95 1015.25 1013.39 1011.85 1010.38 1008.99 1007.77 1006.51 1005.16 1003.75 1002.25 1000.80 999.41 999.00 999.43
1034.92 1034.93 1035.14 1035.42 1036.36 1036.45 1036.62 1036.87 1037.27 1037.34 1036.83 1037.31 1036.54 1036.12 1035.25 1034.42 1033.20 1032.48 1030.75 1029.69 1028.48 1027.32 1025.94 1025.05 1024.06 1022.97 1021.59 1020.32 1019.05 1017.33 1015.56 1013.81 1012.10 1010.76 1009.60 1008.46 1007.35 1006.09 1004.77 1003.50 1002.23 1001.22 1000.42 999.90
1035.50 1035.63 1035.89 1035.63 1036.19 1036.02 1036.36 1037.21 1037.48 1037.45 1037.40 1037.50 1037.20 1036.63 1035.52 1034.69 1033.65 1032.49 1031.08 1030.39 1029.03 1027.77 1026.45 1025.60 1024.59 1023.45 1022.11 1020.73 1019.20 1017.73 1015.96 1014.14 1012.60 1011.38 1010.25 1009.20 1008.21 1007.21 1006.18 1005.00 1003.82 1002.78 1001.83 1000.82
1036.17 1036.06 1036.25 1036.13 1035.53 1035.83 1036.42 1037.00 1037.52 1037.76 1037.24 1037.52 1037.51 1036.80 1035.75 1034.39 1032.84 1031.34 1031.16 1030.66 1029.53 1028.47 1027.54 1026.71 1025.32 1024.12 1022.66 1021.21 1019.63 1018.10 1016.35 1014.72 1013.36 1012.19 1011.16 1010.22 1009.34 1008.50 1007.61 1006.57 1005.61 1004.70 1003.64 1002.42
1036.57 1036.57 1036.11 1036.06 1035.72 1035.17 1035.94 1037.13 1038.04 1038.17 1037.10 1037.36 1037.13 1036.52 1035.73 1034.74 1032.67 1031.04 1031.06 1030.22 1029.52 1028.72 1027.98 1026.93 1025.59 1024.36 1023.11 1021.62 1020.29 1018.79 1017.03 1015.54 1014.26 1013.28 1012.38 1011.38 1010.42 1009.69 1008.89 1008.17 1007.29 1006.58 1005.57 1004.76
1036.38 1036.66 1036.33 1036.13 1035.82 1035.47 1036.30 1037.24 1038.03 1037.66 1037.54 1037.35 1037.40 1036.83 1036.02 1035.35 1035.01 1033.46 1032.14 1030.83 1030.00 1029.09 1028.15 1027.20 1026.03 1024.68 1023.61 1022.36 1021.03 1019.51 1018.06 1016.60 1015.68 1014.59 1013.55 1012.50 1011.66 1010.90 1010.25 1009.56 1008.75 1008.03 1007.36 1006.61
1035.81 1036.11 1036.49 1036.78 1036.12 1035.82 1036.75 1037.38 1037.56 1037.62 1037.53 1037.46 1037.06 1036.66 1036.16 1035.43 1034.61 1033.39 1032.34 1031.09 1030.07 1029.02 1028.24 1027.55 1026.35 1025.14 1023.94 1022.88 1021.64 1020.26 1018.78 1017.63 1016.56 1015.52 1014.57 1013.65 1012.74 1011.97 1011.24 1010.55 1010.03 1009.40 1008.79 1008.29
1035.92 1036.09 1036.23 1036.31 1035.79 1036.49 1037.14 1037.32 1037.67 1038.00 1037.99 1037.55 1037.34 1036.70 1036.23 1035.13 1034.23 1033.48 1032.39 1031.30 1030.40 1029.69 1029.02 1028.23 1027.01 1025.68 1024.41 1023.37 1022.36 1021.06 1019.75 1018.22 1017.20 1016.30 1015.54 1014.90 1014.26 1013.34 1012.53 1011.73 1011.03 1010.45 1010.03 1009.53
1036.09 1036.67 1036.38 1036.61 1036.29 1036.88 1037.38 1037.76 1037.96 1037.97 1037.96 1037.87 1037.42 1036.89 1036.10 1035.37 1034.56 1033.66 1032.82 1031.79 1030.67 1029.99 1029.38 1028.60 1027.44 1026.22 1024.97 1023.93 1022.89 1021.84 1020.49 1018.92 1017.83 1017.11 1016.49 1016.00 1015.54 1014.93 1014.15 1013.39 1012.68 1012.04 1011.40 1010.99
1035.83 1036.39 1035.99 1035.88 1036.49 1037.15 1037.56 1037.73 1038.04 1038.18 1038.18 1037.75 1037.29 1036.89 1036.47 1035.71 1034.67 1034.12 1032.91 1032.09 1031.18 1030.43 1029.87 1029.06 1028.03 1027.00 1025.73 1024.62 1023.50 1022.29 1021.08 1019.47 1018.56 1018.01 1017.66 1017.05 1016.55 1016.21 1015.76 1015.26 1014.71 1014.04 1013.74 1013.16
1035.22 1034.76 1034.95 1034.78 1035.61 1036.27 1036.97 1037.75 1038.11 1038.09 1037.74 1037.45 1037.16 1036.41 1036.02 1035.64 1034.67 1034.13 1033.31 1032.32 1031.50 1030.72 1030.25 1029.43 1028.47 1027.50 1026.26 1025.19 1024.08 1022.90 1021.76 1020.29 1019.50 1018.82 1018.57 1018.27 1017.58 1017.17 1016.81 1016.49 1016.34 1016.07 1015.58 1015.13
Wind_Speed
10 14 12 11 10 7 9 9 9 12 5 5 9 10 7 9 15 18 20 22 22 22 21 21 20 20 20 20 20 20 19 19 15 13 13 13 12 13 13 12 15 15 14 15
7 11 7 2 9 6 6 6 13 5 2 10 8 8 7 8 13 16 19 22 23 23 23 24 23 22 21 23 22 21 21 20 17 14 13 13 13 13 13 13 16 18 18 17
11 5 4 5 11 16 6 12 17 17 14 3 8 7 2 6 12 18 20 22 23 25 26 27 27 26 25 25 24 22 23 22 19 21 14 13 14 12 13 14 13 14 17 17
8 7 7 9 12 15 6 16 18 15 5 3 6 3 4 5 16 21 23 24 25 26 27 25 25 27 26 24 23 24 24 24 20 22 17 21 16 16 14 14 14 14 18 18
6 9 13 12 9 12 7 23 13 4 2 4 3 8 9 4 19 25 26 26 26 27 27 28 28 28 29 26 25 24 26 25 24 23 21 17 19 15 14 14 19 18 17 18
7 5 8 9 8 5 17 19 3 3 3 4 3 9 11 8 18 25 27 28 28 29 29 29 28 28 27 26 24 23 26 26 25 23 22 19 20 20 17 17 15 14 14 14
4 9 3 11 8 2 20 19 5 4 5 6 4 12 11 11 20 26 25 28 29 28 28 29 31 28 28 27 26 23 25 25 24 24 22 22 21 21 21 20 14 18 14 13
8 3 13 12 7 6 11 15 7 8 9 13 9 8 7 9 23 26 25 26 29 30 29 29 29 27 27 28 27 26 25 26 27 26 24 20 22 13 14 17 15 13 13 14
8 5 2 10 15 8 6 8 4 7 3 7 4 5 7 18 27 29 29 31 31 31 30 31 31 29 27 27 27 26 27 25 25 25 21 21 19 19 17 21 18 13 16 14
4 2 4 3 3 13 10 7 2 3 8 10 7 9 9 25 28 30 33 32 31 31 32 29 28 27 26 26 24 25 25 25 24 24 20 17 19 19 17 16 17 18 17 16
3 3 4 1 8 9 5 5 4 2 4 6 9 5 8 22 25 29 31 31 32 32 31 29 27 27 26 26 26 26 25 25 23 22 21 20 19 19 17 16 15 15 15 15
4 3 4 4 6 8 10 4 5 3 6 2 5 7 7 22 24 28 30 31 32 31 30 28 29 28 28 28 27 27 26 24 23 22 21 20 19 18 17 16 16 15 15 14
2 3 2 6 6 3 4 4 2 2 1 1 6 8 18 22 26 29 30 31 30 32 31 29 28 27 27 27 26 27 26 25 23 22 21 20 19 17 16 15 16 15 14 13
3 3 5 4 4 2 1 2 1 3 3 9 9 24 25 25 30 30 30 31 31 30 30 29 28 28 28 28 27 27 26 24 23 22 21 20 17 16 16 14 14 14 13 12
3 2 2 4 3 0 1 1 2 3 6 5 15 21 21 26 30 29 31 31 32 32 32 30 29 28 29 28 27 25 24 24 23 22 18 20 17 17 17 17 16 14 11 9
3 3 1 3 2 2 2 2 4 4 8 11 15 17 21 25 25 28 29 29 31 31 32 32 30 30 29 28 26 25 25 24 22 19 19 18 19 19 19 19 19 21 8 4
2 2 1 3 1 2 4 1 3 9 10 10 13 20 21 25 27 28 28 30 31 31 31 30 30 28 27 26 25 25 24 22 20 17 18 18 19 20 19 19 19 19 18 8
3 3 2 1 4 3 6 1 6 11 13 4 9 19 23 23 26 24 22 29 31 31 30 27 26 26 26 25 25 24 22 21 19 19 18 18 19 20 21 21 20 18 17 17
6 3 3 2 3 2 4 4 4 6 7 2 14 19 22 24 23 16 24 27 29 30 26 24 24 25 24 24 25 23 22 20 21 20 19 19 19 19 19 19 19 19 17 17
3 5 2 1 3 3 5 3 1 3 3 8 15 18 21 22 18 19 31 31 29 28 24 24 25 24 23 24 23 22 22 21 22 20 19 18 18 19 18 19 18 17 17 18
1 2 1 1 3 3 2 1 3 5 7 15 14 16 18 16 16 26 27 27 26 25 26 24 23 22 22 22 22 21 20 21 19 18 18 19 18 17 17 16 16 16 17 18
3 3 2 2 3 3 5 3 3 5 9 12 13 13 18 19 22 23 25 26 26 26 26 23 21 22 21 21 20 20 20 18 17 17 18 19 19 15 14 16 14 16 15 17
3 2 1 5 4 6 3 2 1 3 9 9 13 16 17 20 21 23 23 25 24 24 22 20 20 21 20 21 19 19 20 18 16 15 18 18 20 19 18 18 17 13 15 13
4 3 3 2 5 3 2 2 4 6 8 10 11 14 16 19 20 22 21 22 21 19 19 20 20 21 20 20 20 18 18 17 16 17 17 15 16 17 19 14 14 15 13 13
2 9 6 5 4 2 4 2 2 5 7 9 11 13 14 17 19 20 19 21 20 19 18 18 18 18 19 19 19 18 18 18 16 14 14 14 12 14 14 16 16 14 18 17
8 6 5 1 9 3 6 1 1 4 7 10 12 15 14 15 17 19 18 17 19 20 17 17 19 19 19 18 18 18 18 17 16 14 11 11 10 10 10 10 12 30 29 30
Wind_Direction
33 62 40 19 11 310 296 291 306 357 62 22 92 124 103 49 31 19 10 4 355 349 342 341 341 338 333 332 327 324 318 315 311 307 305 304 300 297 295 289 282 277 273 275
94 61 18 342 4 335 326 328 347 351 83 320 146 129 99 40 30 15 4 359 351 344 342 339 338 336 336 328 328 324 317 312 310 305 303 296 292 291 289 287 284 283 280 278
73 25 316 8 23 5 31 1 335 312 317 37 158 169 171 53 14 3 3 351 349 349 343 339 335 333 332 329 327 321 317 314 311 308 303 297 291 283 283 283 283 283 284 282
62 21 20 26 37 359 329 342 319 311 282 344 216 321 105 17 8 1 355 351 348 344 339 334 332 333 329 326 323 319 315 312 311 308 298 297 291 289 286 288 283 281 279 275
61 29 22 33 13 358 327 319 321 301 226 236 131 272 80 28 359 355 351 349 345 340 337 333 334 331 327 325 321 317 314 310 308 307 301 293 288 286 285 280 282 278 276 267
76 56 36 352 345 13 323 316 181 213 210 220 57 344 78 18 349 351 349 345 344 339 335 332 331 329 323 322 319 316 315 314 311 308 299 290 287 285 284 280 277 272 271 269
124 43 63 11 349 48 7 354 356 315 337 14 309 305 67 11 350 350 346 343 339 336 334 334 331 329 324 323 322 319 318 315 313 310 308 300 295 288 281 279 274 271 269 262
5 165 17 9 33 325 30 20 33 314 328 323 306 330 75 340 347 342 344 339 338 338 335 331 330 326 324 324 323 323 319 316 313 311 307 301 298 288 283 275 271 269 270 268
347 83 103 52 42 356 15 30 348 285 243 270 335 99 153 344 347 340 343 340 339 334 333 330 329 328 326 327 325 323 321 316 309 310 305 300 297 292 287 285 281 274 269 266
56 257 30 32 288 56 62 346 295 12 348 315 343 332 357 348 344 340 338 337 334 332 330 328 329 327 328 327 323 323 319 313 308 304 303 297 291 286 281 277 273 271 267 269
352 289 89 217 29 10 30 26 44 282 335 314 318 57 29 347 339 338 334 333 333 332 330 330 329 331 329 327 328 326 322 317 314 310 305 300 295 291 285 278 270 265 267 266
25 343 48 64 94 68 54 50 355 339 348 33 279 294 353 351 335 336 334 333 332 330 331 328 331 332 332 331 329 327 324 321 319 316 310 304 299 295 289 281 278 265 257 253
38 71 232 180 183 175 52 48 32 85 345 95 312 297 341 343 335 336 332 332 333 331 330 332 332 335 332 328 330 328 326 325 322 321 319 315 310 302 292 283 278 274 265 251
278 69 15 346 24 350 40 81 344 343 305 334 278 309 332 338 335 332 333 333 333 330 333 333 335 336 330 331 331 329 327 327 327 325 324 321 330 335 329 307 285 267 260 256
336 94 81 72 66 117 13 195 233 266 323 283 319 315 326 337 330 329 332 335 333 334 334 337 338 334 332 331 331 330 330 330 330 328 331 337 347 345 342 328 317 289 235 238
22 109 157 108 338 254 236 209 284 279 298 302 317 305 348 324 325 329 335 330 336 335 333 337 335 333 332 333 333 333 333 331 333 344 346 353 352 351 354 357 7 16 47 215
29 118 287 94 114 159 202 351 314 303 303 329 324 326 324 329 330 335 320 342 338 336 334 338 333 333 332 333 335 335 333 333 342 351 354 359 1 2 1 4 14 21 25 21
110 84 52 94 185 225 91 136 296 297 306 330 312 325 325 327 325 316 347 340 335 336 338 337 333 333 333 333 337 335 337 341 355 3 5 5 8 11 10 11 11 22 23 24
21 113 96 292 291 3 192 192 305 333 320 31 323 327 327 327 318 326 346 340 334 337 338 332 331 333 334 336 338 339 345 352 4 7 8 10 12 13 12 14 17 19 17 23
62 54 280 140 290 292 83 129 275 276 221 344 339 329 329 332 334 330 337 333 334 338 341 335 337 335 338 341 341 344 350 357 7 6 10 12 14 19 18 19 21 22 26 35
55 13 13 114 276 249 144 53 140 288 350 338 331 328 324 324 320 314 324 329 335 338 343 339 338 339 340 341 343 347 352 359 1 5 11 17 20 22 22 22 26 27 31 36
249 185 146 139 241 268 134 168 287 357 320 331 323 322 320 319 321 326 329 330 337 340 344 342 338 339 342 344 345 347 353 350 2 9 15 20 23 25 23 27 28 32 35 40
229 264 304 229 21 87 130 303 285 296 315 322 319 321 322 318 328 330 331 332 337 344 344 341 339 336 342 346 349 346 347 348 3 14 23 24 25 26 28 27 30 33 38 43
196 183 249 261 146 196 165 219 246 295 309 315 319 319 323 324 331 331 333 331 337 343 344 339 339 341 341 344 345 346 344 348 2 13 20 24 30 31 34 33 31 31 30 37
50 161 189 243 174 145 153 196 316 302 313 323 334 331 334 329 332 334 333 334 336 343 343 340 340 338 339 341 344 345 346 350 5 15 19 17 31 37 39 41 39 39 44 40
189 173 195 93 137 119 140 145 303 310 333 342 338 336 340 337 331 334 332 335 337 345 345 341 339 339 337 341 342 346 347 356 6 15 19 17 24 29 39 47 52 48 53 54